Regional Weather Roundup
Issued by NWS

Home | Current Version | Previous Version | Graphics & Text | Print | Product List | Glossary On
Versions: 1 2 3 4 5 6 7 8 9 10 11 12 13 14 15 16 17 18 19 20 21 22 23 24 25 26 27 28 29 30 31 32 33 34 35 36 37 38 39 40 41 42 43 44 45 46 47 48 49 50
673
ASUS43 KMPX 240710
RWRMN
WEATHER ROUNDUP FOR MINNESOTA
NATIONAL WEATHER SERVICE TWIN CITIES/CHANHASSEN MN
200 AM CDT SUN SEP 24 2017


NOTE: "FAIR" INDICATES FEW OR NO CLOUDS BELOW 12,000 FEET WITH NO
SIGNIFICANT WEATHER AND/OR OBSTRUCTIONS TO VISIBILITY. N/A MEANS
CURRENT SKY AND/OR WEATHER CONDITIONS ARE NOT AVAILABLE.

MNZ060>063-068>070-240800-
   Twin Cities Metro

CITY           SKY/WX    TMP DP  RH WIND       PRES   REMARKS
TWIN CITIES    PTCLDY    77  65  66 S13       29.94S
ST PAUL        PTCLDY    71  66  84 SE10      29.94S
CRYSTAL        PTCLDY    68  64  87 CALM      29.93S
BLAINE         PTCLDY    70  70 100 CALM      29.94S
LAKEVILLE      PTCLDY    68  63  83 CALM      29.95S
EDEN PRAIRIE   PTCLDY    74  65  73 S3        29.93S
SOUTH ST PAUL  CLOUDY    73  64  74 S3        29.95S
LAKE ELMO      FAIR      72  64  78 S5        29.97S
$$
MNZ001>005-007-008-013>017-022>024-027-028-240800-
   Northwest Minnesota

CITY           SKY/WX    TMP DP  RH WIND       PRES   REMARKS
BEMIDJI        RAIN      55  54  99 E8        29.96F
HALLOCK        DRIZZLE   52  52 100 N8        30.01F
ROSEAU         LGT RAIN  54  48  82 NE7       30.01F
WARROAD        HVY RAIN  55  52  88 NE8       30.02F
THIEF RVR FALL LGT RAIN  54  54 100 NE10      29.97F
CROOKSTON      DRIZZLE   54  54 100 NE6       29.95F
FOSSTON        RAIN      54  52  94 CALM      29.96F
DETROIT LAKES  CLOUDY    57  55  94 SE7       29.93F
MOORHEAD       DRIZZLE   55  55 100 NE3       29.90F
PARK RAPIDS    RAIN      58  57  97 E7        29.95F
MAHNOMEN       RAIN      55  55  99 E9        29.92F
$$
MNZ006-009>011-018-025>026-240800-
   North Central Minnesota

CITY           SKY/WX    TMP DP  RH WIND       PRES   REMARKS
BAUDETTE       LGT RAIN  54  54 100 NE5       30.01F
FLAG ISLAND    DRIZZLE   54  52  94 NE5       30.02S
INTL FALLS     CLOUDY    57  54  89 SE3       30.02F
WASKISH        CLOUDY    54  54 100 E5        30.00S
BIG FORK       LGT RAIN  55  54  94 CALM      30.00F
LONGVILLE      CLOUDY    57  55  94 NE5       29.95F
GRAND RAPIDS   LGT RAIN  58  57  97 NW3       30.01S
CRANE LAKE     RAIN      55  55 100 CALM      30.06S
ORR            LGT RAIN  55  54  94 CALM      29.99F
COOK           RAIN      57  57 100 CALM      30.01F
WALKER         LGT RAIN  56  56  99 E3        29.97F
$$
MNZ012-019>021-037-240800-
   Northeast Minnesota

CITY           SKY/WX    TMP DP  RH WIND       PRES   REMARKS
DULUTH         CLOUDY    64  64 100 NE7       29.98F
ELY            RAIN      57  57 100 CALM      30.03S
HIBBING        LGT RAIN  58  57  97 E7        29.98F
EVELETH        HVY RAIN  60  57  90 NW5       30.03S
DULUTH HARBOR  CLOUDY    66  64  94 CALM      29.97F
GRAND MARAIS     N/A     67  65  93 CALM      29.97F
$$
MNZ029>031-032-039>041-046>048-054>057-064-240800-
   West Central Minnesota

CITY           SKY/WX    TMP DP  RH WIND       PRES   REMARKS
FERGUS FALLS   MOCLDY    61  61 100 E9        29.90F
WHEATON        CLOUDY    61  59  94 SE8       29.91S
ALEXANDRIA     HVY RAIN  60  60 100 E9        29.96F FOG
ELBOW LAKE     MOCLDY    60  60 100 SE10      29.92S
WADENA         LGT RAIN  57  57 100 E6        29.95F
GLENWOOD       CLOUDY    61  59  94 N5        29.96F
APPLETON       CLOUDY    63  59  88 E8        29.90F
BENSON         CLOUDY    63  59  88 E6        29.95F
ORTONVILLE     CLOUDY    63  61  94 E10       29.89F
MADISON        MOCLDY    64  64 100 E8        29.91F
WILLMAR        CLOUDY    64  64 100 N6        29.95F
$$
MNZ033>034-036-042>043-049>051-058-059-240800-
   Central Minnesota

CITY           SKY/WX    TMP DP  RH WIND       PRES   REMARKS
ST CLOUD       CLEAR     64  64 100 E6        29.93F
SAUK CENTRE    CLOUDY    60  59  98 NW7       29.97R
PAYNESVILLE    CLOUDY    64  64 100 NW3       29.96R
AITKIN         CLOUDY    59  57  94 CALM      29.95S
PINE RIVER     HVY RAIN  55  55 100 NE12G26   29.97F
BRAINERD       CLOUDY    59  59 100 E7        29.94F
STAPLES        CLOUDY    57  57 100 SW7       30.00R
LITTLE FALLS   CLOUDY    61  59  94 CALM      29.94S
LITCHFIELD     MOCLDY    66  66 100 CALM      29.94R
BUFFALO        CLEAR     65  63  91 CALM      29.94F
MAPLE LAKE     PTCLDY    65  65  97 CALM      29.94S
HUTCHINSON     CLOUDY    67  66  97 E3        29.94S
$$
MNZ037-044-045-052-053-240800-
   East Central Minnesota

CITY           SKY/WX    TMP DP  RH WIND       PRES   REMARKS
PRINCETON      CLEAR     66  64  94 CALM      29.94F
MORA           PTCLDY    63  61  94 CALM      29.97S
RUSH CITY      CLOUDY    66  64  93 CALM      29.95F
MOOSE LAKE     CLOUDY    63  61  94 CALM      29.95S
HINCKLEY       FAIR      64  64 100 CALM      29.96S
CLOQUET        MOCLDY    64  59  82 CALM      29.98S
MCGREGOR       PTCLDY    61  59  94 NE5       29.96F
$$
MNZ071>073-080-081-089-090-097-098-240800-
   Southwest Minnesota

CITY           SKY/WX    TMP DP  RH WIND       PRES   REMARKS
MONTEVIDEO     CLOUDY    61  61 100 E3        29.93S
GRANITE FALLS  CLOUDY    61  61  99 N3        29.94F FOG
CANBY          CLOUDY    59  58  96 E7        29.93S
MARSHALL       FOG       57  57 100 NE3       29.94F VSB 3/4
REDWOOD FALLS  CLOUDY    60  59  96 N3        29.93F FOG
OLIVIA         CLOUDY    61  59  94 N3        29.92F FOG
PIPESTONE      CLOUDY    57  55  94 E8        29.93S FOG
WORTHINGTON    PTCLDY    62  60  93 E3        29.94F
JACKSON        CLOUDY    68  61  77 CALM      29.95S
TRACY          FOG       58  58 100 NW3       29.95S VSB 1/4
SLAYTON        HAZE      56  52  84 N5        29.96S VSB 1/2
$$
MNZ065>067-074>077-082>085-091>093-240800-
   South Central Minnesota

CITY           SKY/WX    TMP DP  RH WIND       PRES   REMARKS
MANKATO        CLEAR     70  65  84 SE8       29.94F
NEW ULM        CLEAR     68  64  88 SE6       29.92S
ST JAMES       CLEAR     64  63  94 CALM      29.94S
FAIRMONT       CLEAR     69  64  84 S9        29.94
FARIBAULT      PTCLDY    68  63  83 CALM      29.96S
OWATONNA       CLOUDY    73  64  73 SE8       29.97S
WASECA         CLEAR     70  63  78 SE8       29.97S
ALBERT LEA     CLEAR     73  64  73 S7        29.98S
$$
MNZ078>079-086>088-094>096-240800-
   Southeast Minnesota

CITY           SKY/WX    TMP DP  RH WIND       PRES   REMARKS
ROCHESTER      CLEAR     68  63  84 SE8       30.01S
RED WING       PTCLDY    73  61  64 E5        29.95F
STANTON        CLEAR     72  63  73 S5        29.95S
DODGE CENTER   PTCLDY    68  61  77 SE8       29.99S
WINONA         CLEAR     70  66  88 CALM      29.99S
AUSTIN         CLOUDY    72  61  68 S3        29.99S
PRESTON        CLEAR     69  61  74 S7        30.02S
$$
ABBREVIATIONS USED IN REMARKS
   TC - TEMPERATURES IN CELSIUS
  WCI - WIND CHILL INDEX
   HX - HEAT INDEX
  VSB - VISIBILITY
$$




USA.gov is the U.S. government's official web portal to all federal, state and local government web resources and services.